Location: Cold Norton
(51.6667°N, 0.6667°E)
Time: 04:54:16
(UTC+00:00)

SL-16 R/B - Pass Details

Date: 18 November 2025
Orbit: 985 x 1006 km, 99.8° (Epoch: 10 December)

Event Time Altitude Azimuth Distance (km) Brightness Sun altitude
Rises 16:43:37 0° 17° (NNE) 3,749 5.2 -6.4°
Reaches altitude 10° 16:46:07 10° 19° (NNE) 2,794 4.5 -6.8°
Maximum altitude 16:52:26 79° 106° (ESE) 1,029 2.6 -7.7°
Drops below altitude 10° 16:58:40 10° 193° (SSW) 2,767 5.4 -8.6°
Sets 17:01:08 0° 195° (SSW) 3,710 6.1 -8.9°
